TimeCDT,TemperatureF,Dew PointF,Humidity,Sea Level PressureIn,VisibilityMPH,Wind Direction,Wind SpeedMPH,Gust SpeedMPH,PrecipitationIn,Events,Conditions,WindDirDegrees,DateUTC
12:13 AM,69.8,64.4,83,29.78,10.0,SE,5.8,-,N/A,,Scattered Clouds,130,2013-06-25 05:13:00
12:34 AM,69.8,64.4,83,29.78,10.0,SE,4.6,-,N/A,,Clear,130,2013-06-25 05:34:00
12:54 AM,69.8,64.4,83,29.80,10.0,SE,4.6,-,N/A,,Scattered Clouds,140,2013-06-25 05:54:00
1:13 AM,69.8,64.4,83,29.79,10.0,Calm,Calm,-,N/A,,Scattered Clouds,0,2013-06-25 06:13:00
1:34 AM,69.8,64.4,83,29.79,10.0,Calm,Calm,-,N/A,,Clear,0,2013-06-25 06:34:00
1:53 AM,68.0,64.4,88,29.78,10.0,Calm,Calm,-,N/A,,Clear,0,2013-06-25 06:53:00
2:13 AM,69.8,64.4,83,29.78,10.0,Calm,Calm,-,N/A,,Clear,0,2013-06-25 07:13:00
2:34 AM,68.0,64.4,88,29.78,10.0,Calm,Calm,-,N/A,,Clear,0,2013-06-25 07:34:00
2:53 AM,68.0,64.4,88,29.77,10.0,ESE,3.5,-,N/A,,Clear,110,2013-06-25 07:53:00
3:14 AM,69.8,64.4,83,29.76,10.0,Calm,Calm,-,N/A,,Clear,0,2013-06-25 08:14:00
3:34 AM,69.8,64.4,83,29.76,10.0,Calm,Calm,-,N/A,,Clear,0,2013-06-25 08:34:00
3:53 AM,69.8,64.4,83,29.75,10.0,Calm,Calm,-,N/A,,Clear,0,2013-06-25 08:53:00
4:14 AM,69.8,64.4,83,29.74,10.0,Calm,Calm,-,N/A,,Clear,0,2013-06-25 09:14:00
4:34 AM,69.8,64.4,83,29.72,10.0,Calm,Calm,-,N/A,,Clear,0,2013-06-25 09:34:00
4:53 AM,68.0,64.4,88,29.73,7.0,ENE,4.6,-,N/A,,Clear,60,2013-06-25 09:53:00
5:14 AM,68.0,64.4,88,29.74,7.0,ENE,3.5,-,N/A,,Clear,60,2013-06-25 10:14:00
5:34 AM,68.0,64.4,88,29.75,7.0,Calm,Calm,-,N/A,,Scattered Clouds,0,2013-06-25 10:34:00
5:53 AM,68.0,64.4,88,29.76,7.0,ESE,3.5,-,N/A,,Scattered Clouds,110,2013-06-25 10:53:00
6:14 AM,68.0,64.4,88,29.78,7.0,SE,5.8,-,N/A,,Clear,130,2013-06-25 11:14:00
6:34 AM,69.8,66.2,88,29.76,5.0,East,4.6,-,N/A,,Clear,100,2013-06-25 11:34:00
6:53 AM,69.8,66.2,88,29.75,7.0,ENE,8.1,-,N/A,,Clear,70,2013-06-25 11:53:00
7:14 AM,69.8,66.2,88,29.75,7.0,East,5.8,-,N/A,,Clear,100,2013-06-25 12:14:00
7:34 AM,69.8,66.2,88,29.75,7.0,East,4.6,-,N/A,,Clear,80,2013-06-25 12:34:00
7:53 AM,69.8,68.0,94,29.74,7.0,East,8.1,-,N/A,,Clear,90,2013-06-25 12:53:00
8:14 AM,71.6,68.0,88,29.75,7.0,East,4.6,-,N/A,,Clear,90,2013-06-25 13:14:00
8:33 AM,71.6,68.0,88,29.74,10.0,East,8.1,-,N/A,,Clear,90,2013-06-25 13:33:00
8:54 AM,73.4,68.0,83,29.75,10.0,ESE,8.1,-,N/A,,Clear,110,2013-06-25 13:54:00
9:14 AM,75.2,68.0,78,29.75,10.0,ESE,9.2,-,N/A,,Clear,110,2013-06-25 14:14:00
9:33 AM,77.0,68.0,74,29.78,10.0,SSE,12.7,20.7,N/A,,Scattered Clouds,150,2013-06-25 14:33:00
9:54 AM,77.0,68.0,74,29.78,10.0,SE,15.0,-,N/A,,Scattered Clouds,140,2013-06-25 14:54:00
10:14 AM,77.0,68.0,74,29.80,10.0,SSE,12.7,18.4,N/A,,Scattered Clouds,160,2013-06-25 15:14:00
10:33 AM,78.8,68.0,69,29.78,10.0,South,10.4,17.3,N/A,,Scattered Clouds,180,2013-06-25 15:33:00
10:54 AM,78.8,66.2,65,29.77,10.0,SSW,5.8,-,N/A,,Clear,200,2013-06-25 15:54:00
11:13 AM,80.6,66.2,61,29.76,10.0,Calm,Calm,-,N/A,,Clear,0,2013-06-25 16:13:00
11:33 AM,80.6,68.0,65,29.75,10.0,SSE,3.5,-,N/A,,Clear,150,2013-06-25 16:33:00
11:53 AM,82.4,64.4,54,29.74,10.0,Calm,Calm,-,N/A,,Clear,0,2013-06-25 16:53:00
12:13 PM,82.4,66.2,58,29.73,10.0,Calm,Calm,-,N/A,,Clear,0,2013-06-25 17:13:00
12:34 PM,86.0,68.0,55,29.73,10.0,Calm,Calm,-,N/A,,Clear,0,2013-06-25 17:34:00
12:53 PM,86.0,66.2,51,29.74,10.0,SE,3.5,-,N/A,,Clear,140,2013-06-25 17:53:00
1:13 PM,87.8,64.4,46,29.73,10.0,WSW,11.5,17.3,N/A,,Clear,250,2013-06-25 18:13:00
1:34 PM,87.8,66.2,49,29.73,10.0,South,5.8,-,N/A,,Clear,180,2013-06-25 18:34:00
1:53 PM,86.0,66.2,51,29.73,10.0,South,8.1,-,N/A,,Clear,170,2013-06-25 18:53:00
2:13 PM,86.0,64.4,48,29.73,10.0,SSE,5.8,-,N/A,,Clear,160,2013-06-25 19:13:00
2:34 PM,86.0,64.4,48,29.73,10.0,South,4.6,-,N/A,,Clear,180,2013-06-25 19:34:00
2:53 PM,86.0,64.4,48,29.73,10.0,SSE,5.8,-,N/A,,Clear,160,2013-06-25 19:53:00
3:14 PM,86.0,62.6,45,29.73,10.0,South,6.9,-,N/A,,Clear,180,2013-06-25 20:14:00
3:33 PM,86.0,62.6,45,29.73,10.0,South,11.5,-,N/A,,Clear,180,2013-06-25 20:33:00
3:53 PM,84.2,64.4,51,29.74,10.0,South,10.4,-,N/A,,Clear,180,2013-06-25 20:53:00
4:14 PM,82.4,64.4,54,29.73,10.0,South,8.1,-,N/A,,Clear,170,2013-06-25 21:14:00
4:33 PM,86.0,64.4,48,29.73,10.0,SSE,4.6,-,N/A,,Clear,160,2013-06-25 21:33:00
4:53 PM,86.0,64.4,48,29.72,10.0,SSW,10.4,-,N/A,,Clear,200,2013-06-25 21:53:00
5:14 PM,86.0,66.2,51,29.72,10.0,SSE,9.2,-,N/A,,Clear,160,2013-06-25 22:14:00
5:33 PM,86.0,66.2,51,29.72,10.0,SSE,8.1,-,N/A,,Clear,150,2013-06-25 22:33:00
5:53 PM,86.0,68.0,55,29.72,10.0,South,10.4,-,N/A,,Clear,190,2013-06-25 22:53:00
6:14 PM,86.0,68.0,55,29.71,10.0,SSW,12.7,16.1,N/A,,Clear,200,2013-06-25 23:14:00
6:33 PM,86.0,68.0,55,29.71,10.0,SSW,11.5,-,N/A,,Scattered Clouds,200,2013-06-25 23:33:00
6:53 PM,84.2,68.0,58,29.71,10.0,SSW,10.4,-,N/A,,Clear,200,2013-06-25 23:53:00
7:14 PM,82.4,68.0,62,29.71,10.0,SSW,6.9,-,N/A,,Clear,200,2013-06-26 00:14:00
7:33 PM,82.4,69.8,66,29.71,10.0,SSW,4.6,-,N/A,,Clear,200,2013-06-26 00:33:00
7:53 PM,82.4,69.8,66,29.71,10.0,South,4.6,-,N/A,,Clear,190,2013-06-26 00:53:00
8:14 PM,80.6,69.8,70,29.71,10.0,South,3.5,-,N/A,,Clear,190,2013-06-26 01:14:00
8:33 PM,80.6,71.6,74,29.71,10.0,South,4.6,-,N/A,,Clear,190,2013-06-26 01:33:00
8:53 PM,78.8,71.6,78,29.72,10.0,Calm,Calm,-,N/A,,Clear,0,2013-06-26 01:53:00
9:14 PM,77.0,71.6,83,29.71,10.0,South,3.5,-,N/A,,Clear,170,2013-06-26 02:14:00
9:33 PM,77.0,71.6,83,29.72,10.0,Calm,Calm,-,N/A,,Clear,0,2013-06-26 02:33:00
9:53 PM,77.0,69.8,78,29.72,10.0,SSE,3.5,-,N/A,,Clear,160,2013-06-26 02:53:00
10:14 PM,77.0,71.6,83,29.72,10.0,SSE,4.6,-,N/A,,Clear,160,2013-06-26 03:14:00
10:33 PM,75.2,69.8,83,29.72,10.0,Calm,Calm,-,N/A,,Clear,0,2013-06-26 03:33:00
10:54 PM,73.4,69.8,88,29.72,10.0,SSE,3.5,-,N/A,,Clear,160,2013-06-26 03:54:00
11:13 PM,73.4,69.8,88,29.71,10.0,Calm,Calm,-,N/A,,Clear,0,2013-06-26 04:13:00
11:33 PM,71.6,69.8,94,29.71,10.0,South,3.5,-,N/A,,Clear,170,2013-06-26 04:33:00
11:54 PM,73.4,69.8,88,29.71,10.0,SSE,3.5,-,N/A,,Clear,160,2013-06-26 04:54:00